TimeCST,TemperatureF,Dew PointF,Humidity,Sea Level PressureIn,VisibilityMPH,Wind Direction,Wind SpeedMPH,Gust SpeedMPH,PrecipitationIn,Events,Conditions,WindDirDegrees,DateUTC
12:53 AM,14.0,-0.0,54,30.43,10.0,Calm,Calm,-,0.00,,Overcast,0,2013-01-22 06:53:00
1:53 AM,14.0,1.0,56,30.44,9.0,Calm,Calm,-,0.00,,Overcast,0,2013-01-22 07:53:00
2:53 AM,14.0,1.9,59,30.45,10.0,Calm,Calm,-,N/A,,Overcast,0,2013-01-22 08:53:00
3:53 AM,14.0,-0.0,54,30.44,10.0,NE,3.5,-,N/A,,Overcast,50,2013-01-22 09:53:00
4:53 AM,12.9,-0.9,54,30.43,10.0,East,3.5,-,N/A,,Mostly Cloudy,90,2013-01-22 10:53:00
5:53 AM,12.0,-0.9,56,30.43,10.0,ENE,3.5,-,N/A,,Partly Cloudy,70,2013-01-22 11:53:00
6:53 AM,14.0,-0.9,52,30.42,10.0,Calm,Calm,-,N/A,,Partly Cloudy,0,2013-01-22 12:53:00
7:53 AM,12.9,-0.9,54,30.44,10.0,East,5.8,-,N/A,,Clear,90,2013-01-22 13:53:00
8:53 AM,15.1,1.0,54,30.45,10.0,ENE,6.9,-,N/A,,Scattered Clouds,60,2013-01-22 14:53:00
9:53 AM,16.0,1.9,54,30.48,10.0,Variable,5.8,-,N/A,,Partly Cloudy,0,2013-01-22 15:53:00
10:53 AM,19.0,3.0,50,30.48,10.0,East,4.6,-,N/A,,Mostly Cloudy,100,2013-01-22 16:53:00
11:53 AM,21.0,3.9,48,30.44,10.0,Variable,5.8,-,N/A,,Partly Cloudy,0,2013-01-22 17:53:00
12:53 PM,23.0,3.9,44,30.39,10.0,ESE,5.8,-,N/A,,Clear,120,2013-01-22 18:53:00
1:53 PM,26.1,3.9,39,30.37,10.0,SE,8.1,-,N/A,,Clear,140,2013-01-22 19:53:00
2:53 PM,27.0,3.9,37,30.33,10.0,ESE,4.6,-,N/A,,Clear,110,2013-01-22 20:53:00
3:53 PM,28.0,5.0,38,30.32,10.0,East,4.6,-,N/A,,Clear,80,2013-01-22 21:53:00
4:53 PM,26.1,6.1,43,30.33,10.0,SE,4.6,-,N/A,,Clear,140,2013-01-22 22:53:00
5:53 PM,23.0,6.1,48,30.34,10.0,SSE,4.6,-,N/A,,Clear,160,2013-01-22 23:53:00
6:53 PM,23.0,7.0,50,30.34,10.0,Calm,Calm,-,N/A,,Clear,0,2013-01-23 00:53:00
7:53 PM,21.0,8.1,57,30.34,10.0,Calm,Calm,-,N/A,,Clear,0,2013-01-23 01:53:00
8:53 PM,21.0,7.0,55,30.34,10.0,SE,6.9,-,N/A,,Clear,130,2013-01-23 02:53:00
9:53 PM,19.0,7.0,59,30.35,10.0,Calm,Calm,-,N/A,,Clear,0,2013-01-23 03:53:00
10:53 PM,19.0,6.1,57,30.34,10.0,SE,4.6,-,N/A,,Clear,140,2013-01-23 04:53:00
11:53 PM,19.0,6.1,57,30.34,10.0,ESE,4.6,-,N/A,,Clear,120,2013-01-23 05:53:00